Regional Weather Roundup
Issued by NWS

Home | Current Version | Previous Version | Text Only | Print | Product List | Glossary On
Versions: 1 2 3 4 5 6 7 8 9 10 11 12 13 14 15 16 17 18 19 20 21 22 23 24 25 26 27 28 29 30 31 32 33 34 35 36 37 38 39 40 41 42 43 44 45 46 47 48 49 50
000
ASUS42 KFFC 130610
RWRGA
WEATHER ROUNDUP FOR GEORGIA
NATIONAL WEATHER SERVICE PEACHTREE CITY GA
100 AM EST WED DEC 13 2017

NOTE: "FAIR" INDICATES FEW OR NO CLOUDS BELOW 12,000 FEET WITH NO
SIGNIFICANT WEATHER AND/OR OBSTRUCTIONS TO VISIBILITY.

* = USE WITH CAUTION. THE STATIONS MARKED WITH AN ASTERISK MAY NOT
REPORT WEATHER SUCH AS PRECIPITATION, FOG, OR THUNDER AND ARE NOT
QUALITY CONTROLLED BY NWS.

THE REMARK "TC" DENOTES TEMPERATURE READING IN DEGREES CELSIUS.

GAZ001>058-130700-
NORTH GEORGIA

CITY           SKY/WX    TMP DP  RH WIND       PRES   REMARKS
ATLANTA        CLEAR     34  17  50 NW16G25   30.00S WCI  24
6HR MIN TEMP:  34; 6HR MAX TEMP:  43;

ATHENS         CLEAR     35  12  38 NW12G21   29.95R WCI  27
6HR MIN TEMP:  34; 6HR MAX TEMP:  43;

CHAMBLEE       CLEAR     32  14  47 NW15      30.00S WCI  22
6HR MIN TEMP:  32; 6HR MAX TEMP:  42;

PEACHTREE CITY CLEAR     37  17  44 NW15      30.03S WCI  28
6HR MIN TEMP:  37; 6HR MAX TEMP:  45;

ROME           CLEAR     33  15  47 NW8       30.06S WCI  26
6HR MIN TEMP:  32; 6HR MAX TEMP:  43;

WEST ATLANTA   CLEAR     34  16  47 NW7       30.02R WCI  28
6HR MIN TEMP:  34; 6HR MAX TEMP:  43;

GAINESVILLE    CLEAR     31   8  38 NW13      29.95R WCI  21
6HR MIN TEMP:  31; 6HR MAX TEMP:  39;

CARTERSVILLE   CLEAR     32  15  49 VRB6      30.06R WCI  26
6HR MIN TEMP:  32; 6HR MAX TEMP:  41;



CITY           SKY/WX    TMP DP  RH WIND       PRES   REMARKS
DALTON*        CLEAR     30  14  51 NW6       30.07R WCI  24
LAWRENCEVILLE* CLEAR     32   9  38 W10G17    29.97R WCI  24
MARIETTA       CLEAR     33  13  43 NW16G23   30.00S WCI  22
KENNESAW*      CLEAR     32  13  45 NW9G21    30.02S WCI  24
CANTON*        CLEAR     32  14  47 NW16G25   29.98S WCI  21
$$

GAZ059>098-102>109-130700-
CENTRAL GEORGIA

CITY           SKY/WX    TMP DP  RH WIND       PRES   REMARKS
AUGUSTA-BUSH   CLEAR     40  22  48 NW10      29.94R WCI  33
6HR MIN TEMP:  40; 6HR MAX TEMP:  47;

AUGUSTA-DANIEL CLEAR     39  22  50 W8        29.93R WCI  33
6HR MIN TEMP:  39; 6HR MAX TEMP:  48;

COLUMBUS       CLEAR     42  25  50 NW12      30.05R
6HR MIN TEMP:  42; 6HR MAX TEMP:  49;

MACON          CLEAR     39  25  57 NW12      30.01S WCI  32
6HR MIN TEMP:  37; 6HR MAX TEMP:  46;

ROBINS AFB     CLEAR     41  25  52 NW17      30.00S


CITY           SKY/WX    TMP DP  RH WIND       PRES   REMARKS
LAGRANGE*      CLEAR     38  25  58 NW7       30.04S WCI  33
SYLVANIA*      CLEAR     40  32  71 NW6       29.94S
MILLEDGEVILLE* CLEAR     41  23  48 NW15G23   29.99S
$$

GAZ099>101-110>166-130700-
SOUTH GEORGIA

CITY           SKY/WX    TMP DP  RH WIND       PRES   REMARKS
SAVANNAH       CLEAR     42  29  59 W8        29.94S
6HR MIN TEMP:  42; 6HR MAX TEMP:  52;

VALDOSTA       CLEAR     36  32  85 CALM      30.03S
6HR MIN TEMP:  36; 6HR MAX TEMP:  48;

ALMA           CLEAR     45  31  58 W9        29.99S
6HR MIN TEMP:  45; 6HR MAX TEMP:  52;

ST SIMONS      CLEAR     46  34  62 W7G17     29.96F
6HR MIN TEMP:  46; 6HR MAX TEMP:  55;

FT STEWART     CLEAR     45  29  55 W13       29.92F
ALBANY         CLEAR     43  32  65 NW7       30.06F
HUNTER AFB     CLEAR     44  29  55 W13       29.91S
MOODY AFB      CLEAR     42  33  71 NW8       30.01S
BRUNSWICK      CLEAR     43  32  65 W7        29.98S


CITY           SKY/WX    TMP DP  RH WIND       PRES   REMARKS
BAINBRIDGE*    CLEAR     43  37  81 NW7       30.06S
MOULTRIE*      CLEAR     43  34  70 NW5       30.04S
VIDALIA*       CLEAR     43  32  65 W7        29.98R
WAYCROSS*      CLEAR     41  32  70 W5        30.00S
DOUGLAS*       CLEAR     41  32  70 W3        30.02S
$$



USA.gov is the U.S. government's official web portal to all federal, state and local government web resources and services.